Wind_Speed
19 8 10 7 7 7 7 7 8 9 10 10 10 11 12 14 15 13 12 11 10 10 12 10 8 7 7 6 7 7 8 9 9 10 10 10 10 11 11 11 10 10 10
13 15 13 11 11 10 10 9 10 11 11 11 12 12 12 14 14 13 12 12 11 14 12 10 8 7 6 7 8 10 11 11 12 12 13 13 11 11 11 11 9 10 10
15 20 11 11 12 12 12 12 12 13 12 12 12 13 13 14 14 13 12 11 15 14 12 10 9 8 8 9 11 11 12 12 13 14 13 13 12 10 11 12 12 15 15
19 20 12 8 12 15 15 15 15 15 14 14 13 12 13 14 15 14 12 17 15 13 11 9 9 8 9 11 12 13 13 13 13 14 14 12 11 12 11 12 12 12 11
20 23 18 8 10 15 17 17 18 17 17 16 15 14 15 15 15 15 15 16 12 11 10 9 9 9 11 12 12 12 12 12 11 11 12 12 9 8 9 10 10 9 9
33 32 31 23 18 13 20 20 20 20 19 19 17 14 15 16 17 18 18 17 13 11 11 11 11 11 12 12 12 12 12 12 10 9 11 10 9 8 8 8 8 6 7
25 33 36 33 25 21 17 23 22 22 22 19 17 18 17 18 17 19 20 17 14 12 11 11 12 14 14 12 11 11 10 10 11 11 10 11 11 11 10 8 7 6 6
27 28 37 37 31 25 21 24 24 23 22 21 20 20 20 20 20 21 20 18 15 13 12 12 13 15 14 13 12 11 10 11 11 12 14 14 12 11 10 9 8 7 7
27 29 33 40 36 28 27 25 27 28 26 25 24 23 21 23 23 23 21 18 16 14 13 13 14 16 16 14 13 13 13 12 11 13 14 14 12 11 10 9 8 7 7
25 28 31 35 36 33 26 27 31 29 29 29 29 27 22 24 27 25 23 21 18 16 14 15 16 18 17 16 15 15 14 13 11 14 14 12 12 10 9 8 7 6 6
29 27 32 32 36 35 32 28 34 33 33 33 33 30 26 27 28 27 25 23 21 18 17 17 18 18 18 17 17 17 15 13 13 13 13 12 11 10 9 7 6 5 4
30 31 31 33 35 35 39 30 37 38 38 38 36 31 30 30 29 29 27 25 24 21 19 18 19 21 20 19 19 18 16 16 15 14 13 11 10 9 8 7 5 3 2
36 31 33 34 34 33 36 38 41 43 42 41 38 34 32 31 31 30 28 27 26 23 21 21 21 21 21 21 21 20 19 19 15 14 13 12 11 10 8 6 4 3 2
36 32 34 35 34 34 40 44 43 45 45 44 40 37 36 34 31 30 30 28 27 24 23 23 23 23 23 23 22 21 20 17 16 16 14 13 11 10 8 5 3 2 0
32 33 29 33 34 37 43 42 56 43 44 47 44 40 40 36 30 30 31 30 28 26 25 25 25 24 23 23 22 21 21 17 16 15 14 12 10 9 7 4 2 1 2
32 33 27 32 35 39 48 60 28 42 56 51 47 44 43 37 31 32 32 31 30 28 27 27 26 24 24 25 24 23 20 18 16 16 14 12 11 8 6 4 3 2 3
30 32 28 30 36 43 48 47 39 41 36 50 48 46 43 37 34 32 33 32 31 30 29 29 28 27 26 27 25 24 22 20 18 17 15 13 11 9 7 5 4 4 4
27 28 26 29 33 41 49 49 53 16 41 50 50 46 41 38 36 34 33 33 33 31 29 30 30 29 28 27 26 25 24 22 20 18 16 14 12 10 8 6 5 6 7
26 25 26 28 30 34 42 40 62 21 31 44 47 47 45 36 37 35 34 33 32 30 30 30 30 30 28 27 26 24 24 23 22 20 18 15 14 12 11 8 7 7 7
23 23 24 25 27 29 34 33 53 48 5 40 56 47 44 38 37 36 35 33 33 31 30 30 30 30 28 26 26 26 25 24 22 21 18 17 15 14 12 11 9 9 9
19 20 23 19 18 20 15 14 43 41 26 25 41 47 43 39 37 37 36 34 33 31 31 31 31 31 30 30 29 28 27 26 24 21 20 18 17 14 13 11 11 10 11
18 18 18 19 15 11 13 8 14 40 41 26 40 48 43 40 38 38 36 34 33 33 33 33 32 32 31 29 29 28 27 26 25 23 21 18 16 15 13 14 14 13 14
18 19 24 20 25 12 17 8 7 11 22 22 37 45 55 46 39 39 36 34 33 34 33 33 32 31 30 30 29 29 28 29 25 24 21 19 17 16 17 17 16 16 19
17 14 11 21 19 18 18 13 16 7 13 10 29 34 46 39 38 38 37 36 35 34 34 32 31 30 30 29 30 28 29 25 24 23 21 20 20 19 19 18 18 21 22
12 11 18 4 4 19 18 15 14 8 8 6 10 31 44 47 37 38 38 36 35 34 33 31 31 31 32 31 29 27 27 26 26 24 23 22 21 21 20 19 21 22 23
9 9 20 5 10 10 15 26 18 19 17 17 19 31 39 48 44 38 38 36 35 33 33 33 33 33 32 31 31 31 30 29 28 27 25 25 25 23 22 22 23 25 24
Wind_Direction
262 258 278 265 276 253 252 247 224 213 202 183 178 189 199 200 195 195 197 197 190 180 168 163 159 161 157 151 148 143 137 136 137 134 127 124 121 117 114 111 111 106 101
268 263 270 265 258 250 240 243 231 222 214 198 185 190 200 206 204 199 202 206 189 174 169 168 169 168 163 155 152 142 136 136 136 131 129 126 124 121 119 113 109 106 104
250 258 268 262 245 235 239 238 234 226 222 213 207 196 199 206 211 207 203 195 170 172 173 175 180 177 169 159 149 141 139 137 135 133 132 129 127 120 118 107 105 99 93
245 257 243 281 254 232 228 236 234 230 224 220 216 213 207 208 208 205 187 178 173 176 180 183 183 182 169 159 152 147 147 145 138 144 135 129 127 104 99 96 89 85 85
246 263 255 241 286 250 228 230 235 230 227 224 222 221 219 204 205 202 188 183 185 184 187 188 190 181 170 163 158 154 155 151 151 147 136 127 125 107 99 90 85 83 81
257 263 265 249 266 276 240 228 232 232 230 227 224 222 194 185 198 201 194 192 196 196 195 194 190 180 172 167 164 164 166 165 149 148 142 142 132 121 106 98 98 93 89
257 257 262 257 260 260 259 231 227 233 230 229 210 205 187 197 203 195 191 198 201 203 202 197 189 180 172 167 165 168 170 162 163 160 149 142 133 135 129 124 115 103 91
257 256 260 255 259 255 258 236 223 228 228 220 215 201 205 210 198 189 195 201 205 206 205 200 194 183 175 171 170 177 174 178 168 152 140 138 142 134 128 124 116 108 93
257 256 256 256 255 252 247 238 226 223 226 221 216 215 220 216 203 196 200 205 207 210 205 203 194 190 182 177 178 178 184 180 169 148 148 146 141 136 129 121 114 107 93
263 253 254 255 253 248 240 232 223 224 221 224 221 219 220 216 209 203 203 207 207 208 205 203 194 193 188 183 184 184 182 177 164 160 154 148 145 138 130 124 121 110 98
269 257 252 250 252 242 236 230 224 221 220 222 223 224 223 212 209 205 205 205 207 206 205 200 195 194 191 189 189 189 179 178 175 169 159 161 150 147 141 135 127 120 108
272 259 257 252 245 244 242 232 218 219 224 221 225 228 219 214 211 209 204 205 207 205 204 199 195 196 195 193 193 191 183 182 184 178 168 166 161 157 153 146 143 120 88
277 264 257 252 244 236 238 229 217 214 222 223 223 225 219 216 213 211 208 207 208 205 204 201 198 198 200 198 197 193 191 188 185 184 179 177 174 173 165 163 157 134 112
273 266 253 249 245 236 223 224 229 216 222 223 219 221 223 217 214 211 212 210 210 207 204 204 203 200 202 203 200 200 201 185 191 190 188 187 186 182 176 172 172 170 37
271 263 250 245 243 236 226 233 200 211 227 223 218 218 224 217 212 211 213 211 211 207 207 206 206 205 205 207 204 204 207 192 196 198 196 196 196 194 188 185 199 225 312
270 266 250 246 238 237 232 232 192 195 216 219 216 216 225 217 212 212 212 213 211 210 208 210 208 207 206 209 208 209 209 202 201 206 205 201 205 207 203 212 225 261 303
274 267 258 253 242 239 239 240 234 211 198 208 215 216 221 218 214 215 211 214 214 212 208 211 209 209 210 211 210 211 210 208 207 210 209 212 210 210 218 228 251 272 287
273 272 266 262 252 244 246 247 217 202 187 206 211 216 222 220 219 217 213 213 214 214 212 212 212 211 212 213 213 213 214 212 210 215 216 216 219 218 223 230 250 275 289
279 278 272 266 258 256 257 265 233 222 174 210 209 216 215 218 223 219 216 214 217 214 215 216 215 215 215 216 216 216 217 217 214 214 219 222 223 226 231 235 243 259 276
280 268 267 260 259 264 265 264 234 235 252 202 206 209 209 219 224 221 217 212 217 215 215 215 216 216 214 215 216 217 218 221 220 219 220 224 228 232 236 242 251 262 276
272 260 255 245 267 261 253 228 222 248 265 256 227 219 203 204 219 220 216 214 215 215 215 214 215 215 217 214 215 217 219 220 223 222 223 226 231 235 245 256 265 274 283
293 261 240 227 228 168 110 100 237 247 266 256 236 213 215 202 214 218 215 214 214 215 215 214 214 216 216 218 221 219 223 223 225 226 229 232 238 244 249 254 256 271 288
310 258 236 226 211 142 214 142 119 288 258 250 214 223 216 196 207 213 213 212 214 215 216 216 216 216 219 219 219 221 224 226 226 228 231 234 237 242 248 254 265 275 287
306 297 223 221 237 173 143 136 136 223 263 265 213 211 212 193 201 209 210 210 211 214 215 214 217 216 216 219 224 226 227 228 233 235 235 238 241 246 252 259 271 284 287
300 299 308 267 165 198 201 168 169 123 173 153 210 219 205 198 201 206 209 209 211 212 214 214 215 215 216 219 220 224 228 228 230 232 234 239 244 246 249 260 278 286 291
299 309 311 243 192 177 193 188 208 203 175 215 190 215 210 197 197 204 208 208 209 210 212 212 214 216 218 220 220 222 224 226 230 233 235 238 239 245 259 274 285 287 292
Height
3126 3129 3129 3130 3131 3132 3133 3134 3135 3137 3138 3139 3141 3143 3145 3147 3148 3150 3152 3153 3154 3155 3156 3157 3159 3159 3161 3161 3162 3163 3163 3164 3165 3165 3166 3167 3168 3169 3170 3171 3172 3172 3172
3125 3127 3128 3128 3129 3131 3132 3133 3134 3136 3138 3139 3139 3142 3144 3146 3148 3149 3151 3152 3153 3155 3156 3157 3159 3160 3161 3162 3163 3163 3164 3164 3165 3166 3167 3169 3170 3171 3171 3171 3171 3171 3172
3124 3124 3127 3127 3127 3128 3131 3132 3134 3135 3136 3138 3139 3140 3143 3145 3147 3149 3150 3151 3153 3155 3156 3158 3159 3160 3161 3162 3163 3163 3164 3165 3166 3167 3169 3170 3171 3172 3172 3172 3172 3172 3172
3122 3121 3125 3125 3126 3126 3128 3131 3132 3134 3135 3137 3138 3140 3141 3143 3146 3148 3149 3151 3152 3154 3156 3157 3158 3160 3161 3162 3164 3164 3165 3166 3167 3168 3169 3171 3172 3172 3172 3172 3173 3173 3173
3119 3120 3120 3124 3124 3125 3126 3128 3130 3132 3134 3135 3137 3138 3139 3142 3144 3146 3148 3150 3151 3153 3155 3156 3158 3159 3161 3163 3164 3165 3166 3166 3167 3168 3169 3170 3172 3173 3173 3173 3174 3175 3176
3115 3116 3117 3119 3122 3122 3124 3125 3128 3130 3132 3133 3135 3137 3138 3140 3142 3144 3147 3149 3151 3153 3154 3156 3157 3159 3161 3163 3164 3165 3166 3166 3167 3168 3169 3171 3172 3174 3174 3175 3175 3176 3176
3111 3111 3111 3114 3118 3120 3120 3122 3124 3128 3129 3131 3133 3135 3137 3138 3139 3142 3145 3148 3150 3152 3154 3155 3157 3158 3160 3162 3164 3165 3165 3166 3166 3168 3170 3172 3173 3174 3174 3175 3176 3177 3177
3105 3106 3104 3109 3111 3115 3117 3119 3121 3124 3127 3130 3132 3133 3134 3135 3137 3139 3143 3146 3149 3151 3152 3154 3156 3157 3159 3161 3163 3164 3166 3167 3167 3169 3171 3172 3173 3174 3175 3176 3177 3177 3177
3098 3100 3100 3101 3105 3110 3112 3114 3117 3120 3124 3126 3129 3130 3130 3133 3135 3137 3140 3144 3146 3149 3151 3153 3155 3158 3159 3161 3162 3164 3165 3166 3168 3170 3171 3172 3173 3174 3175 3176 3177 3178 3177
3091 3094 3095 3096 3099 3103 3106 3108 3112 3115 3119 3122 3124 3125 3127 3129 3132 3134 3137 3141 3144 3147 3150 3152 3154 3157 3159 3160 3161 3162 3164 3167 3169 3171 3171 3173 3173 3175 3175 3176 3177 3177 3177
3085 3088 3087 3089 3092 3095 3099 3103 3107 3110 3113 3117 3118 3120 3123 3125 3129 3131 3135 3138 3141 3145 3148 3150 3153 3156 3158 3159 3160 3161 3164 3167 3169 3170 3172 3173 3174 3174 3175 3176 3177 3177 3177
3078 3080 3081 3082 3085 3088 3093 3096 3099 3104 3107 3110 3113 3117 3118 3121 3125 3128 3131 3135 3138 3142 3145 3148 3151 3153 3156 3158 3159 3161 3163 3165 3167 3169 3171 3173 3173 3174 3175 3176 3177 3177 3177
3067 3072 3073 3074 3078 3081 3085 3089 3091 3096 3100 3104 3108 3112 3113 3116 3120 3125 3128 3132 3134 3138 3143 3145 3148 3152 3155 3157 3158 3160 3160 3163 3167 3168 3170 3172 3173 3174 3175 3176 3176 3177 3177
3059 3062 3064 3066 3069 3072 3077 3083 3086 3089 3093 3097 3101 3106 3107 3111 3115 3121 3124 3129 3132 3135 3139 3143 3146 3149 3152 3155 3157 3158 3158 3163 3166 3168 3169 3171 3172 3173 3174 3175 3176 3176 3177
3052 3053 3055 3057 3061 3063 3066 3070 3063 3081 3085 3090 3094 3099 3100 3105 3111 3116 3120 3124 3127 3131 3136 3140 3143 3146 3150 3153 3155 3157 3158 3163 3166 3167 3169 3171 3172 3173 3173 3175 3176 3176 3177
3045 3045 3048 3049 3051 3054 3055 3056 3048 3064 3068 3081 3087 3090 3094 3099 3106 3110 3115 3119 3123 3128 3132 3136 3140 3144 3147 3150 3153 3155 3158 3162 3164 3166 3168 3169 3171 3172 3172 3173 3174 3175 3176
3039 3038 3041 3041 3041 3044 3046 3051 3040 3047 3047 3063 3078 3082 3088 3095 3100 3105 3110 3115 3119 3123 3128 3132 3137 3140 3144 3147 3151 3153 3156 3159 3162 3164 3165 3167 3168 3169 3171 3171 3173 3173 3174
3032 3033 3033 3034 3033 3033 3036 3043 3048 3041 3051 3059 3068 3077 3083 3090 3095 3100 3106 3110 3115 3120 3124 3129 3133 3137 3140 3144 3148 3151 3154 3156 3159 3161 3163 3165 3166 3167 3168 3169 3170 3171 3172
3027 3027 3028 3027 3027 3025 3025 3029 3036 3039 3043 3049 3061 3071 3078 3084 3091 3096 3102 3107 3110 3116 3120 3125 3130 3134 3138 3142 3146 3149 3152 3153 3155 3157 3160 3162 3163 3164 3165 3166 3167 3167 3168
3021 3021 3022 3022 3022 3021 3019 3017 3022 3037 3034 3043 3056 3063 3065 3078 3087 3093 3097 3102 3106 3112 3116 3122 3126 3130 3135 3139 3143 3146 3148 3151 3153 3154 3157 3159 3161 3162 3163 3164 3164 3165 3165
3016 3016 3016 3018 3018 3015 3012 3012 3020 3017 3033 3041 3048 3056 3061 3070 3082 3089 3093 3098 3102 3108 3113 3117 3121 3126 3130 3134 3138 3141 3144 3147 3149 3152 3153 3155 3158 3160 3160 3162 3163 3163 3162
3014 3011 3011 3014 3014 3013 3009 3007 3014 3025 3032 3039 3043 3050 3056 3066 3076 3085 3089 3094 3098 3103 3108 3112 3117 3122 3126 3132 3135 3138 3141 3145 3146 3148 3150 3153 3154 3156 3157 3157 3158 3158 3159
3010 3005 3005 3009 3007 3009 3010 3012 3015 3027 3034 3033 3034 3044 3050 3059 3071 3080 3084 3089 3094 3099 3104 3109 3113 3118 3123 3127 3131 3134 3137 3139 3142 3144 3146 3149 3150 3151 3151 3152 3153 3153 3154
3004 3002 3000 2998 3003 3007 3010 3013 3016 3027 3027 3025 3029 3038 3047 3054 3064 3073 3079 3084 3089 3095 3099 3105 3109 3114 3118 3123 3126 3131 3132 3136 3138 3141 3142 3144 3145 3146 3147 3147 3148 3148 3147
3006 3002 2996 2994 2998 3001 3006 3010 3017 3014 3020 3021 3024 3030 3036 3047 3057 3067 3074 3080 3085 3091 3096 3101 3104 3109 3113 3118 3122 3126 3128 3131 3133 3135 3136 3139 3140 3141 3141 3142 3142 3142 3142
3004 3001 2996 2996 2999 3001 3004 3010 3014 3021 3023 3023 3025 3030 3036 3044 3052 3061 3070 3076 3082 3087 3092 3096 3100 3104 3109 3113 3117 3120 3122 3125 3126 3128 3131 3132 3133 3135 3136 3136 3137 3136 3136